• In Latvia
  • List of Countries
  • For 7 days
  • Water Temperature
  • Satellite Maps
  • Weather Map
  • Weather Widgets
  • user-avatar
    Login

    Hourly Weather Tuzla

    Today, 19 September, Wednesday

    Time Temperature Precipitation Wind Pressure Humidity
    00:00 +16°C° 0 mm 1 mps 725 mmHg 66%
    01:00 +15°C° 0 mm 1 mps 725 mmHg 67%
    02:00 +15°C° 0 mm 1 mps 725 mmHg 67%
    03:00 +15°C° 0 mm 1 mps 725 mmHg 68%
    04:00 +15°C° 0 mm 1 mps 724 mmHg 68%
    05:00 +16°C° 0 mm 1 mps 725 mmHg 65%
    06:00 +18°C° 0 mm 1 mps 725 mmHg 63%
    07:00 +19°C° 0 mm 1 mps 725 mmHg 60%
    08:00 +22°C° 0 mm 1 mps 726 mmHg 53%
    09:00 +25°C° 0 mm 1 mps 726 mmHg 46%
    10:00 +28°C° 0 mm 1 mps 726 mmHg 38%
    11:00 +28°C° 0 mm 1 mps 726 mmHg 37%
    12:00 +29°C° 0 mm 1 mps 726 mmHg 35%
    13:00 +30°C° 0 mm 2 mps 726 mmHg 34%
    14:00 +29°C° 0 mm 2 mps 725 mmHg 36%
    15:00 +29°C° 0 mm 2 mps 725 mmHg 38%
    16:00 +28°C° 0 mm 2 mps 725 mmHg 41%
    17:00 +26°C° 0 mm 2 mps 725 mmHg 49%
    18:00 +23°C° 0 mm 1 mps 725 mmHg 57%
    19:00 +20°C° 0 mm 1 mps 725 mmHg 66%
    20:00 +20°C° 0 mm 1 mps 725 mmHg 68%
    21:00 +19°C° 0 mm 1 mps 725 mmHg 70%
    22:00 +19°C° 0 mm 1 mps 725 mmHg 73%
    23:00 +18°C° 0 mm 1 mps 725 mmHg 74%

    Tomorrow, 20 September, Thursday

    Time Temperature Precipitation Wind Pressure Humidity
    00:00 +18°C° 0 mm 1 mps 725 mmHg 75%
    01:00 +16°C° 0 mm 1 mps 725 mmHg 77%
    02:00 +16°C° 0 mm 1 mps 725 mmHg 78%
    03:00 +16°C° 0 mm 1 mps 725 mmHg 79%
    04:00 +14°C° 0 mm 0 mps 724 mmHg 81%
    05:00 +16°C° 0 mm 0 mps 725 mmHg 77%
    06:00 +17°C° 0 mm 0 mps 725 mmHg 73%
    07:00 +18°C° 0 mm 0 mps 725 mmHg 70%
    08:00 +22°C° 0 mm 1 mps 725 mmHg 61%
    09:00 +25°C° 0 mm 1 mps 725 mmHg 52%
    10:00 +27°C° 0 mm 1 mps 726 mmHg 43%
    11:00 +28°C° 0 mm 1 mps 725 mmHg 40%
    12:00 +28°C° 0 mm 2 mps 725 mmHg 38%
    13:00 +29°C° 0 mm 2 mps 725 mmHg 35%
    14:00 +29°C° 0 mm 2 mps 725 mmHg 36%
    15:00 +28°C° 0 mm 2 mps 724 mmHg 37%
    16:00 +28°C° 0 mm 2 mps 724 mmHg 39%
    17:00 +25°C° 0 mm 2 mps 724 mmHg 46%
    18:00 +22°C° 0 mm 1 mps 724 mmHg 52%
    19:00 +20°C° 0 mm 1 mps 724 mmHg 59%
    20:00 +19°C° 0 mm 1 mps 724 mmHg 61%
    21:00 +18°C° 0 mm 1 mps 724 mmHg 63%
    22:00 +18°C° 0 mm 1 mps 724 mmHg 65%
    23:00 +16°C° 0 mm 1 mps 724 mmHg 67%

    Day after tomorrow, 21 September, Friday

    Time Temperature Precipitation Wind Pressure Humidity
    00:00 +16°C° 0 mm 1 mps 724 mmHg 68%
    01:00 +16°C° 0 mm 1 mps 723 mmHg 70%
    02:00 +15°C° 0 mm 1 mps 723 mmHg 71%
    03:00 +15°C° 0 mm 1 mps 723 mmHg 72%
    04:00 +15°C° 0 mm 1 mps 723 mmHg 74%
    05:00 +16°C° 0 mm 1 mps 723 mmHg 71%
    06:00 +18°C° 0 mm 1 mps 723 mmHg 68%
    07:00 +19°C° 0 mm 1 mps 723 mmHg 65%
    08:00 +22°C° 0 mm 1 mps 724 mmHg 56%
    09:00 +25°C° 0 mm 1 mps 724 mmHg 48%
    10:00 +28°C° 0 mm 1 mps 724 mmHg 39%
    11:00 +29°C° 0 mm 1 mps 724 mmHg 37%
    12:00 +30°C° 0 mm 1 mps 723 mmHg 35%
    13:00 +31°C° 0 mm 1 mps 723 mmHg 33%
    14:00 +30°C° 0 mm 1 mps 723 mmHg 36%
    15:00 +29°C° 0 mm 1 mps 722 mmHg 39%
    16:00 +28°C° 0 mm 1 mps 722 mmHg 42%
    17:00 +26°C° 0 mm 1 mps 722 mmHg 48%
    18:00 +24°C° 0 mm 1 mps 721 mmHg 54%
    19:00 +22°C° 0 mm 1 mps 721 mmHg 60%
    20:00 +21°C° 0 mm 1 mps 721 mmHg 64%
    21:00 +19°C° 0 mm 2 mps 722 mmHg 68%
    22:00 +19°C° 0 mm 2 mps 722 mmHg 72%
    23:00 +18°C° 0 mm 2 mps 722 mmHg 75%

    22 September, Saturday

    Time Temperature Precipitation Wind Pressure Humidity
    00:00 +18°C° 0 mm 2 mps 721 mmHg 78%
    01:00 +17°C° 0 mm 2 mps 721 mmHg 81%
    02:00 +17°C° 0 mm 2 mps 721 mmHg 81%
    03:00 +17°C° 0 mm 2 mps 721 mmHg 81%
    04:00 +16°C° 0 mm 2 mps 721 mmHg 81%
    05:00 +17°C° 0.1 mm 2 mps 722 mmHg 78%
    06:00 +18°C° 0.1 mm 2 mps 722 mmHg 75%
    07:00 +20°C° 0.1 mm 1 mps 723 mmHg 71%
    08:00 +18°C° 0.3 mm 2 mps 723 mmHg 74%
    09:00 +18°C° 0.3 mm 2 mps 724 mmHg 76%
    10:00 +18°C° 0.3 mm 3 mps 724 mmHg 78%
    11:00 +17°C° 0.1 mm 3 mps 725 mmHg 78%
    12:00 +14°C° 0.1 mm 4 mps 725 mmHg 79%
    13:00 +13°C° 0.1 mm 4 mps 726 mmHg 80%
    14:00 +12°C° 0.1 mm 4 mps 726 mmHg 82%
    15:00 +11°C° 0.1 mm 3 mps 726 mmHg 83%
    16:00 +10°C° 0.1 mm 2 mps 727 mmHg 85%
    17:00 +10°C° 0 mm 1 mps 727 mmHg 86%
    18:00 +10°C° 0 mm 1 mps 727 mmHg 87%
    19:00 +10°C° 0 mm 1 mps 727 mmHg 88%
    20:00 +8°C° 0 mm 0 mps 727 mmHg 89%
    21:00 +8°C° 0 mm 0 mps 727 mmHg 90%
    22:00 +8°C° 0 mm 0 mps 727 mmHg 92%
    23:00 +8°C° 0.3 mm 0 mps 727 mmHg 91%

    23 September, Sunday

    Time Temperature Precipitation Wind Pressure Humidity
    00:00 +8°C° 0.3 mm 0 mps 727 mmHg 91%
    01:00 +9°C° 0.3 mm 0 mps 727 mmHg 90%
    02:00 +8°C° 0.3 mm 0 mps 727 mmHg 91%
    03:00 +8°C° 0.3 mm 0 mps 726 mmHg 91%
    04:00 +8°C° 0.3 mm 0 mps 726 mmHg 92%
    05:00 +10°C° 0.1 mm 1 mps 726 mmHg 90%
    06:00 +10°C° 0.1 mm 1 mps 726 mmHg 89%
    07:00 +11°C° 0.1 mm 1 mps 726 mmHg 87%
    08:00 +13°C° 0 mm 1 mps 726 mmHg 78%
    09:00 +15°C° 0 mm 1 mps 726 mmHg 69%
    10:00 +19°C° 0 mm 1 mps 726 mmHg 59%
    11:00 +20°C° 0 mm 2 mps 726 mmHg 56%
    12:00 +23°C° 0 mm 2 mps 725 mmHg 52%
    13:00 +24°C° 0 mm 2 mps 725 mmHg 48%
    14:00 +24°C° 0 mm 2 mps 724 mmHg 50%
    15:00 +24°C° 0 mm 2 mps 723 mmHg 52%
    16:00 +24°C° 0 mm 2 mps 723 mmHg 54%
    17:00 +21°C° 0 mm 2 mps 722 mmHg 62%
    18:00 +19°C° 0 mm 2 mps 722 mmHg 69%
    19:00 +18°C° 0 mm 1 mps 721 mmHg 77%
    20:00 +16°C° 0 mm 2 mps 721 mmHg 80%
    21:00 +16°C° 0 mm 2 mps 720 mmHg 83%
    22:00 +16°C° 0 mm 2 mps 720 mmHg 86%
    23:00 +16°C° 0 mm 2 mps 719 mmHg 88%

    24 September, Monday

    Time Temperature Precipitation Wind Pressure Humidity
    00:00 +16°C° 0 mm 2 mps 718 mmHg 89%
    01:00 +16°C° 0 mm 2 mps 718 mmHg 91%
    02:00 +16°C° 0 mm 2 mps 717 mmHg 91%
    03:00 +16°C° 0 mm 2 mps 717 mmHg 92%
    04:00 +16°C° 0 mm 2 mps 716 mmHg 92%
    05:00 +17°C° 0 mm 2 mps 716 mmHg 89%
    06:00 +18°C° 0 mm 2 mps 716 mmHg 85%
    07:00 +18°C° 0 mm 2 mps 716 mmHg 82%
    08:00 +20°C° 0.2 mm 3 mps 716 mmHg 76%
    09:00 +21°C° 0.2 mm 4 mps 716 mmHg 69%
    10:00 +22°C° 0.2 mm 5 mps 717 mmHg 63%
    11:00 +20°C° 0.8 mm 4 mps 717 mmHg 71%
    12:00 +17°C° 0.8 mm 4 mps 717 mmHg 78%
    13:00 +13°C° 0.8 mm 3 mps 716 mmHg 85%
    14:00 +11°C° 2 mm 3 mps 717 mmHg 88%
    15:00 +10°C° 2 mm 2 mps 717 mmHg 91%
    16:00 +8°C° 2 mm 2 mps 717 mmHg 94%
    17:00 +8°C° 2.1 mm 2 mps 717 mmHg 94%
    18:00 +9°C° 2.1 mm 1 mps 718 mmHg 95%
    19:00 +9°C° 2.1 mm 1 mps 718 mmHg 95%
    20:00 +9°C° 1.8 mm 1 mps 718 mmHg 95%
    21:00 +9°C° 1.8 mm 1 mps 719 mmHg 95%
    22:00 +9°C° 1.8 mm 1 mps 719 mmHg 95%
    23:00 +9°C° 0.6 mm 1 mps 719 mmHg 95%
    Show more